User: anonymous   Login
Location: Bletchingley
(51.2333°N, 0.1000°W)
Time: 20:00:48
(UTC+00:00)
Language:

NOSS 3-2 (C) - Orbit

View from above orbital plane
View from above orbital plane
View from above satellite
View from above satellite

Ground track
Ground track

The orbit data is extracted from the following two-line orbital elements,

1 28097U 03054C   21165.93699983 0.00000000  00000-0  00000-0 0    02
2 28097  63.4154 192.0024 0434518 359.6741   0.3259 13.40776756    04
Epoch (UTC): 14 June 2021 22:29:16
Eccentricity: 0.0434518
inclination: 63.4154°
perigee height: 781 km
apogee height: 1431 km
right ascension of ascending node: 192.0024°
argument of perigee: 359.6741°
revolutions per day: 13.40776756
mean anomaly at epoch: 0.3259°
orbit number at epoch: 0

The dashed part of the orbit path shows where the satellite is in the earth's shadow,  

DLR